Location: Unspecified
(0.0000°N, 0.0000°E)
Time: 20:08:55
(UTC+00:00)

Vanguard 1 Rocket - Pass Details

Date: 20 March 2018
Orbit: 649 x 4227 km, 34.3° (Epoch: 16 November)

Event Time Altitude Azimuth Distance (km) Brightness Sun altitude
Rises 07:17:11 0° 226° (SW) 7,393 11.6 17.4°
Reaches altitude 10° 07:30:48 10° 188° (S) 4,985 11.1 20.8°
Maximum altitude 07:31:59 10° 183° (S) 4,832 11.1 21.1°
Drops below altitude 10° 07:33:07 10° 178° (S) 4,705 11.1 21.4°
Sets 07:41:39 0° 136° (SE) 4,595 11.6 23.5°
